Regional Weather Roundup
Issued by NWS

Home | Current Version | Previous Version | Text Only | Print | Product List | Glossary On
Versions: 1 2 3 4 5 6 7 8 9 10 11 12 13 14 15 16 17 18 19 20 21 22 23 24 25 26 27 28 29 30 31 32 33 34 35 36 37 38 39 40 41 42 43 44 45 46 47 48 49 50
000
ASUS45 KPSR 250510
RWRAZ

ARIZONA REGIONAL HOURLY WEATHER ROUNDUP
NATIONAL WEATHER SERVICE PHOENIX AZ
1000 PM MST WED DEC 24 2014

NOTE: FAIR INDICATES FEW OR NO CLOUDS BELOW 12,000 FEET WITH NO
SIGNIFICANT WEATHER AND/OR OBSTRUCTIONS TO VISIBILITY.

AZZ001>003-036-250600-
NORTHWEST ARIZONA

CITY           SKY/WX    TMP DP  RH WIND       PRES   REMARKS
BULLHEAD CITY  CLEAR     52  23  32 S8        29.79F
KINGMAN        MOCLDY    44  13  28 SE6G16    29.78F
$$

AZZ004>008-015-016-018-250600-
NORTH CENTRAL ARIZONA

CITY           SKY/WX    TMP DP  RH WIND       PRES   REMARKS
GRAND CANYON   CLOUDY    36  14  40 SW12      29.81F WCI  28
PRESCOTT       CLOUDY    40  13  33 E10G16    29.86F WCI  33
FLAGSTAFF      CLOUDY    33  11  39 W12G17    29.87F WCI  24
PAYSON         CLOUDY    37  16  41 CALM      29.95S
PAGE           MOCLDY    37  19  48 CALM      29.73F HAZE
$$

AZZ009>014-017-250600-
NORTHEAST ARIZONA

CITY           SKY/WX    TMP DP  RH WIND       PRES   REMARKS
WINSLOW        CLOUDY    34  20  56 CALM      29.81F
SAINT JOHNS    CLOUDY    31  18  58 CALM      29.84F
WINDOW ROCK    CLOUDY    36  14  40 VRB3      29.85F
SHOW LOW       CLOUDY    36  10  35 S22       29.90F WCI  24
$$

AZZ023-250600-
GREATER PHOENIX AREA

CITY           SKY/WX    TMP DP  RH WIND       PRES   REMARKS
PHOENIX        CLOUDY    54  26  34 E6        29.85F
BUCKEYE          N/A     48  27  43 NW6       29.87R
LUKE AFB       CLOUDY    49  34  55 N7        29.86F
DEER VALLEY    CLOUDY    52  24  33 CALM      29.86F
SCOTTSDALE     CLOUDY    52  30  43 CALM      29.87F
MESA-GATEWAY   MOCLDY    46  32  57 E3        29.89F
$$

AZZ027-028-250600-
SOUTHWEST MARICOPA COUNTY AND PINAL COUNTY

CITY           SKY/WX    TMP DP  RH WIND       PRES   REMARKS
CASA GRANDE    CLOUDY    48  30  49 CALM      29.88S
GILA BEND      MOCLDY    52  28  38 S5        29.85F
$$

AZZ503-504-507>509-250600-
SOUTHEAST ARIZONA

CITY           SKY/WX    TMP DP  RH WIND       PRES   REMARKS
TUCSON         CLOUDY    48  27  44 S7        29.92S
DAVIS-MONTHAN  CLOUDY    50  20  31 E7        29.90R
NOGALES        CLOUDY    44  16  32 CALM      29.94F
SIERRA VISTA   CLOUDY    46   7  20 S9        29.96F
DOUGLAS        CLOUDY    31  11  43 CALM      29.97F
SAFFORD        CLOUDY    47  12  24 E9        29.93F
$$

AZZ020-021-025-026-031-250600-
SOUTHWEST ARIZONA

CITY           SKY/WX    TMP DP  RH WIND       PRES   REMARKS
YUMA           CLOUDY   N/A N/A N/A SE9       29.82F
$$

CAZ031-033-041-043-047-048-061-250600-
SOUTHERN CALIFORNIA

CITY           SKY/WX    TMP DP  RH WIND       PRES   REMARKS
DOWNTOWN L.A.  MOCLDY    60  53  77 CALM      29.86S
L.A. AIRPORT   MOCLDY    61  59  93 W7        29.86S
SAN DIEGO      CLOUDY    64  45  49 W3        29.91R
BURBANK        CLEAR     57  45  64 SE3       29.86R
ONTARIO        PTCLDY    58  40  51 W5        29.86F
RIVERSIDE      CLEAR     59  39  47 CALM      29.86F
PALM SPRINGS   CLEAR     55  29  36 NW6       29.84F
EL CENTRO NAS  CLOUDY    55  32  41 E8        29.80F
IMPERIAL       CLOUDY    61  24  24 SE7       29.79F
BLYTHE         CLOUDY    53  33  46 E6        29.82F
NEEDLES        CLEAR     53  16  23 SW8       29.78F
$$

NVZ020-UTZ003-250600-
SOUTHERN NEVADA-UTAH

CITY           SKY/WX    TMP DP  RH WIND       PRES   REMARKS
LAS VEGAS      CLEAR     44  22  41 S8        29.64F
SALT LAKE CITY CLOUDY    45  24  43 S18G28    29.39F
$$

NMZ009-TXZ055-250600-
NEW MEXICO-WEST TEXAS

CITY           SKY/WX    TMP DP  RH WIND       PRES   REMARKS
ALBUQUERQUE    MOCLDY    34   9  35 S10       29.91F WCI  26
EL PASO        MOCLDY    38   9  30 SE8       29.99F WCI  32
$$


........................KEY........................
SKY/WX - SKY CONDITION/WEATHER
TMP    - TEMPERATURE IN FAHRENHEIT
DP     - DEW POINT IN FAHRENHEIT
RH     - RELATIVE HUMIDITY IN PERCENT
WIND   - DIRECTION AND SPEED IN MILES PER HOUR (MPH)
VRB    - VARIABLE WIND DIRECTION
PRES   - MEAN SEA LEVEL PRESSURE IN INCHES OF MERCURY
         F - FALLING PRESSURE   R - RISING PRESSURE
         S - STEADY PRESSURE
VSB    - VISIBILITY IN MILES
HX     - HEAT INDEX IN FAHRENHEIT
WCI    - WIND CHILL INDEX IN FAHRENHEIT
TC     - TEMPERATURE IN CELSIUS WHICH IS ALSO KNOWN AS
         TEMPERATURE IN CENTIGRADE
AFB    - AIR FORCE BASE
         LUKE AFB IS LUKE AIR FORCE BASE
         DAVIS-MONTHAN IS DAVIS-MONTHAN AIR FORCE BASE
NAS    - NAVAL AIR STATION
         EL CENTRO NAS IS EL CENTRO NAVAL AIR STATION
N/A    - NOT AVAILABLE


USA.gov is the U.S. government's official web portal to all federal, state and local government web resources and services.